Charleston, WV

1:02 PM EDT on July 26, 2017 (GMT -0400)
Yeager Airport

Weather History for KCRW - June, 2013

Change the Weather History Date:

Sunday, June 16, 2013

  Actual Average Record
Temperature  
Mean Temperature 70 °F 72 °F  
Max Temperature 80 °F 83 °F 97 °F (1952)
Min Temperature 60 °F 62 °F 46 °F (1961)
Degree Days  
Heating Degree Days 0 0  
Month to date heating degree days 0 10  
Since 1 June heating degree days 0 10  
Since 1 July heating degree days 4516 4475  
Cooling Degree Days 5 8  
Month to date cooling degree days 96 95  
Year to date cooling degree days 243 205  
Since 1 June cooling degree days 96 95  
Growing Degree Days 20 (Base 50)    
Moisture  
Dew Point 63 °F    
Average Humidity 74    
Maximum Humidity 90    
Minimum Humidity 58    
Precipitation  
Precipitation 0.07 in 0.14 in 2.48 in (2003)
Month to date precipitation 3.96 2.36  
Year to date precipitation 19.39 20.50  
Snow  
Snow 0.00 in - - ()
Month to date snowfall 0.0  
Since 1 September snowfall 25.3  
Snow Depth 0.00 in    
Sea Level Pressure  
Sea Level Pressure 30.01 in    
Wind  
Wind Speed 4 mph (WSW)    
Max Wind Speed 10 mph    
Max Gust Speed -    
Visibility 9 miles    
Events Rain    
T = Trace of Precipitation, MM = Missing Value Source: NWS Daily Summary

Daily Weather History Graph

Daily Weather History Graph

Search for Another Location

Airport or City:

Trip Planner

Search our weather history database for the weather conditions in past years. The results will help you decide how hot, cold, wet, or windy it might be!

Date:

Astronomy

Jun. 16, 2013 Rise Set
Actual Time 6:02 AM EDT 8:52 PM EDT
Civil Twilight 5:30 AM EDT 9:23 PM EDT
Nautical Twilight 4:50 AM EDT 10:03 PM EDT
Astronomical Twilight 4:05 AM EDT 10:49 PM EDT
Moon 1:31 PM EDT (6/16) 1:01 AM EDT (6/16)
Length of Visible Light 15h 53m
Length of Day
14h 50m
Waxing Crescent, 49% of the Moon is Illuminated
Jun 16
Waxing Crescent
Jun 16
First Quarter
Jun 23
Full
Jun 30
Last Quarter
Jul 8
New

Hourly Weather History & Observations

Time (EDT) Temp. Heat Index Dew Point Humidity Pressure Visibility Wind Dir Wind Speed Gust Speed Precip Events Conditions
12:54 AM 62.1 °F - 59.0 °F 90% 30.03 in 9.0 mi Calm Calm - N/A   Scattered Clouds
1:54 AM 62.1 °F - 59.0 °F 90% 30.01 in 8.0 mi Calm Calm - N/A   Clear
2:54 AM 61.0 °F - 57.9 °F 90% 30.01 in 6.0 mi Calm Calm - N/A   Clear
3:54 AM 61.0 °F - 57.9 °F 90% 30.00 in 5.0 mi Calm Calm - N/A   Clear
4:54 AM 61.0 °F - 57.9 °F 90% 30.00 in 6.0 mi Calm Calm - N/A   Scattered Clouds
5:54 AM 61.0 °F - 57.9 °F 90% 30.02 in 7.0 mi Calm Calm - N/A   Partly Cloudy
6:54 AM 61.0 °F - 57.9 °F 90% 30.02 in 10.0 mi Calm Calm - N/A   Mostly Cloudy
7:54 AM 63.0 °F - 59.0 °F 87% 30.02 in 10.0 mi Calm Calm - N/A   Mostly Cloudy
8:54 AM 71.1 °F - 62.1 °F 73% 30.02 in 10.0 mi SSW 5.8 mph - N/A   Mostly Cloudy
9:54 AM 75.0 °F - 62.1 °F 64% 30.04 in 10.0 mi WSW 9.2 mph - N/A   Mostly Cloudy
10:54 AM 78.1 °F - 64.0 °F 62% 30.02 in 10.0 mi SW 10.4 mph - N/A   Scattered Clouds
11:54 AM 75.9 °F - 64.0 °F 67% 30.03 in 10.0 mi WNW 4.6 mph - N/A   Mostly Cloudy
12:54 PM 75.0 °F - 64.0 °F 69% 30.03 in 10.0 mi WNW 8.1 mph - N/A   Mostly Cloudy
1:54 PM 78.1 °F - 64.9 °F 64% 30.01 in 10.0 mi Variable 3.5 mph - N/A   Mostly Cloudy
2:54 PM 79.0 °F - 66.0 °F 64% 29.99 in 10.0 mi West 4.6 mph - N/A   Mostly Cloudy
3:54 PM 79.0 °F - 66.9 °F 66% 29.99 in 10.0 mi West 9.2 mph - N/A   Mostly Cloudy
4:54 PM 80.1 °F 81.9 °F 64.9 °F 60% 30.00 in 10.0 mi WNW 8.1 mph - N/A   Mostly Cloudy
5:54 PM 78.1 °F - 64.0 °F 62% 29.99 in 10.0 mi West 6.9 mph - N/A   Mostly Cloudy
6:54 PM 75.9 °F - 64.0 °F 67% 29.99 in 10.0 mi NW 4.6 mph - 0.00 in Rain Light Rain
7:54 PM 72.0 °F - 66.9 °F 84% 29.99 in 9.0 mi Calm Calm - 0.03 in Rain Light Rain
8:54 PM 71.1 °F - 66.9 °F 87% 30.00 in 6.0 mi SSW 3.5 mph - 0.03 in Rain Light Rain
9:54 PM 70.0 °F - 66.9 °F 90% 30.00 in 6.0 mi SSW 3.5 mph - 0.01 in Rain Light Rain
10:54 PM 70.0 °F - 66.0 °F 87% 30.00 in 9.0 mi SSW 3.5 mph - 0.00 in   Mostly Cloudy
11:54 PM 69.1 °F - 66.0 °F 90% 29.99 in 8.0 mi South 5.8 mph - N/A   Mostly Cloudy